Regional Weather Roundup
Issued by NWS Sterling, VA

Home | Current Version | Previous Version | Text Only | Print | Product List | Glossary On
Versions: 1 2 3 4 5 6 7 8 9 10 11 12 13 14 15 16 17 18 19 20 21 22 23 24 25 26 27 28 29 30 31 32 33 34 35 36 37 38 39 40 41 42 43 44 45 46 47 48 49 50
000
ASUS41 KLWX 200310
RWRLWX

REGIONAL WEATHER ROUNDUP
NATIONAL WEATHER SERVICE BALTIMORE MD/WASHINGTON DC
1000 PM EST THU JAN 19 2017

Note: "FAIR" indicates few or no clouds below 12,000 feet
with no significant weather and/or obstructions to visibility.
 TC=TEMPERATURE CELSIUS

 * =Non NWS site. Station does not report precipitation (e.g. rain,
    snow, etc.), thunder, or fog.

DCZ001-MDZ009-015-VAZ040>042-051-053>054-200400-
WASHINGTON METRO

CITY           SKY/WX    TMP DP  RH WIND       PRES   REMARKS
WASHINGTON NAT CLOUDY    42  38  85 CALM      30.03F
DULLES         CLOUDY    33  31  92 CALM      30.01F
ANDREWS AFB    CLOUDY    36  33  92 CALM      30.01F
FT BELVOIR     CLEAR     34  32  94 CALM      30.02F
QUANTICO       CLOUDY    38  37  97 CALM      30.04S
COLLEGE PARK*  CLOUDY    34  34 100 CALM      30.03S
LEESBURG*      CLOUDY    37  37 100 MISG      30.02S
MANASSAS*      CLEAR    N/A N/A N/A CALM      30.03S
GAITHERSBURG*  CLOUDY    34  28  80 CALM      30.05S

$$

MDZ006>007-011-014-200400-
BALTIMORE METRO

CITY           SKY/WX    TMP DP  RH WIND       PRES   REMARKS
BWI AIRPORT    CLOUDY    37  35  92 CALM      30.03S
MD SCIENCE CTR   N/A     43  34  70 MISG      30.03S
MARTIN STATE   CLEAR     37  37 100 CALM      30.05S
ANNAPOLIS      CLOUDY    39  35  86 CALM      30.03S
FORT MEADE*    CLOUDY    32  32 100 CALM      30.06S

$$

MDZ012-015-019>023-200400-
MARYLAND EASTERN SHORE

CITY           SKY/WX    TMP DP  RH WIND       PRES   REMARKS
OCEAN CITY     CLOUDY    34  34 100 CALM      30.05S FOG
SALISBURY      CLOUDY    35  34  96 CALM      30.04S
BAY BRIDGE AP* PTCLDY    37  34  87 E3        30.04S
CAMBRIDGE*     CLOUDY    34  32  93 CALM      30.03F

$$

MDZ017>025-200400-
SOUTHERN MARYLAND

CITY           SKY/WX    TMP DP  RH WIND       PRES   REMARKS
PATUXENT RIVER MOCLDY    35  33  92 CALM      30.03F
ST INIGOES     CLEAR     35  33  92 CALM      30.03F
LEONARDTOWN*   CLEAR     36  34  93 CALM      30.04F

$$

MDZ003>005-200400-
NORTH CENTRAL MARYLAND

CITY           SKY/WX    TMP DP  RH WIND       PRES   REMARKS
FREDERICK*     CLOUDY    32  32 100 CALM      30.05S
HAGERSTOWN APT CLOUDY    38  32  79 E6        30.00S
WESTMINSTER*     N/A     36  34  93 CALM      30.01S

$$

MDZ501>502-200400-
WESTERN MARYLAND

CITY           SKY/WX    TMP DP  RH WIND       PRES   REMARKS
OAKLAND*         N/A     36  32  87 SE9       29.91F WCI  29
CUMBERLAND*    PTCLDY    36  34  93 CALM      30.03S

$$

VAZ025>031-200400-
SHENANDOAH VALLEY

CITY           SKY/WX    TMP DP  RH WIND       PRES   REMARKS
WINCHESTER*    CLEAR     32  30  93 CALM      29.99F
FRONT ROYAL*   CLEAR     36  36 100 CALM      29.98S
LURAY*         CLOUDY    39  39 100 CALM      29.97F
NEW MARKET*    CLOUDY    38  36  91 CALM      29.96F
STAUNTON*      CLOUDY    38  37  95 CALM      29.98S
WAYNESBORO*    CLOUDY    43  37  80 CALM      29.97S

$$

WVZ021-048>050-054>055-200400-
EASTERN WEST VIRGINIA PANHANDLE

CITY           SKY/WX    TMP DP  RH WIND       PRES   REMARKS
MARTINSBURG    CLOUDY    34  30  85 CALM      30.00F
PETERSBURG*    CLOUDY    38  37  95 CALM      29.98S

$$

VAZ036>039-050-200400-
CENTRAL FOOTHILLS

CITY           SKY/WX    TMP DP  RH WIND       PRES   REMARKS
CHARLOTTESVILL MOCLDY    46  39  76 CALM      29.99S
CULPEPER*      PTCLDY    35  35  98 CALM      30.02S
ORANGE*          N/A     41  41 100 CALM      30.02S
GORDONSVILLE*  CLOUDY    40  38  93 CALM      30.00S
WARRENTON*     PTCLDY    32  30  92 CALM      30.01S

$$

VAZ055>057-200400-
NORTH AND CENTRAL PIEDMONT

CITY           SKY/WX    TMP DP  RH WIND       PRES   REMARKS
FREDERICKSBRG* PTCLDY    39  37  93 CALM      30.01S
STAFFORD*      PTCLDY    33  33 100 CALM      30.06S

$$

NCZ024-NYZ072-PAZ021-071-VAZ022-071-200400-
OTHER REGIONAL OBSERVATIONS

CITY           SKY/WX    TMP DP  RH WIND       PRES   REMARKS
NEW YORK CITY  CLOUDY    42  32  67 VRB5      30.03F
PHILADELPHIA   CLOUDY    38  32  79 S3        30.06R
PITTSBURGH     CLOUDY    34  33  96 CALM      29.93F
ROANOKE        PTCLDY    49  37  63 CALM      29.98F
RICHMOND       CLOUDY    42  39  89 SE5       30.02R
RALEIGH        PTCLDY    50  40  68 SE5       29.99F

$$

ANZ530>537-200400-
MARINE OBSERVATIONS

STATION/POSITION TIME  TEMP    WIND        PRES
                       AIR SEA DIR/SP/G
                 (UTC) (F)     (DEG/KT/KT) (MB)
THOMAS PT LIGHT  0300   41 40  110/  2/  5   N/A
BALT KEY BRIDGE  0248   40      70/  3/  4 1017.2R
COVE POINT       0248   43     200/  4/  6 1017.6F
LEWISETTA        0248   42 44  120/  2/  2 1016.6F
SOLOMONS ISLAND  0242   39 41  100/  1/  1   N/A
PINEY POINT      0248          110/  5/  6   N/A

$$




USA.gov is the U.S. government's official web portal to all federal, state and local government web resources and services.